Regional Weather Roundup
Issued by NWS

Home | Current Version | Previous Version | Graphics & Text | Print | Product List | Glossary Off
Versions: 1 2 3 4 5 6 7 8 9 10 11 12 13 14 15 16 17 18 19 20 21 22 23 24 25 26 27 28 29 30 31 32 33 34 35 36 37 38 39 40 41 42 43 44 45 46 47 48 49 50

000
ASUS43 KMKX 260500
RWRWI

WISCONSIN REGIONAL WEATHER ROUNDUP
NATIONAL WEATHER SERVICE MILWAUKEE/SULLIVAN WI
1100 PM CST SUN JAN 25 2015

NOTE: "FAIR" INDICATES FEW OR NO CLOUDS BELOW 12,000 FEET WITH NO
SIGNIFICANT WEATHER AND/OR OBSTRUCTIONS TO VISIBILITY.

WIZ001-002-006>008-014>016-023>028-260600-
NORTHWEST WISCONSIN

CITY           SKY/WX    TMP DP  RH WIND       PRES   REMARKS
SUPERIOR ARPT  CLOUDY    18  12  79 CALM      29.97F
ASHLAND        MOCLDY    13   7  77 S7        29.97F WCI   3
HAYWARD        PTCLDY     8   4  83 CALM      29.96F
SIREN          CLOUDY    20  11  68 S5        29.98S WCI  13
CUMBERLAND     CLEAR     12   9  85 S5        29.97F WCI   4
RICE LAKE      CLEAR     15  10  79 SE5       30.00F WCI   7
CHETEK         CLEAR     13  10  88 CALM      29.99F
LADYSMITH      CLOUDY    16  10  77 S3        30.00F
EAU CLAIRE     NOT AVBL
MENOMONIE      PTCLDY    19  13  78 CALM      30.01F
NEW RICHMOND   PTCLDY    17  11  80 S3        30.00S
OSCEOLA        MOCLDY    20  13  73 S5        30.03S WCI  14
$$

WIZ003>005-009-010-017-018-260600-
NORTH CENTRAL WISCONSIN

CITY           SKY/WX    TMP DP  RH WIND       PRES   REMARKS
MANITOWISH WTR PTCLDY     4   1  88 CALM      29.94F
ARBOR VITAE    PTCLDY     9   5  83 CALM      29.95F
WOODRUFF       PTCLDY     9   5  83 CALM      29.95F
RHINELANDER    MOCLDY     7   3  84 S3        29.96F
EAGLE RIVER    PTCLDY     3  -2  81 CALM      29.95S
LAND O LAKES   PTCLDY    -2  -6  84 CALM      29.95F
PHILLIPS       CLOUDY     6   3  86 CALM      29.96F
TOMAHAWK       MOCLDY     9   4  82 CALM      29.98S
MEDFORD        MOCLDY     9   6  85 CALM      29.97F
MERRILL        MOCLDY    11   6  79 CALM      29.99F
$$

WIZ029-030-035-036-043>047-260600-
CENTRAL WISCONSIN

CITY           SKY/WX    TMP DP  RH WIND       PRES   REMARKS
WAUSAU         MOCLDY    13   4  67 SE5       29.99F WCI   5
MOSINEE        MOCLDY    12   7  79 S5        30.01F WCI   4
MARSHFIELD     MOCLDY    14   6  70 S6        30.00F WCI   5
STEVENS POINT  MOCLDY     8   4  84 CALM      30.03F
WAUPACA        FAIR      16   8  72 W6        30.06S WCI   7
WAUTOMA        NOT AVBL
WISC RAPIDS    MOCLDY    11   5  77 SE5       30.04F WCI   3
CAMP DOUGLAS   NOT AVBL
$$

WIZ011>013-019>022-031-037>040-048>050-260600-
NORTHEAST WISCONSIN

CITY           SKY/WX    TMP DP  RH WIND       PRES   REMARKS
ANTIGO         PTCLDY     8   3  77 S5        29.98F WCI   0
SHAWANO        CLEAR     15   8  75 CALM      30.06F
OCONTO         PTCLDY     9   7  92 MISG      30.06F
STURGEON BAY   CLEAR     10   3  72 CALM      30.05F
GREEN BAY      PTCLDY    14   8  77 N5        30.05F WCI   6
MANITOWOC      NOT AVBL
APPLETON       MOCLDY    16   7  67 N5        30.04F WCI   9
CLINTONVILLE   PTCLDY    14   9  79 CALM      30.05F
OSHKOSH        PTCLDY    16   7  67 N7        30.03F WCI   6
$$

WIZ032>034-041-042-053>061-260600-
SOUTHWEST WISCONSIN

CITY           SKY/WX    TMP DP  RH WIND       PRES   REMARKS
LA CROSSE      MOCLDY    23  16  74 S6        30.04S WCI  16
SPARTA         MOCLDY    18  12  75 CALM      30.04F
VIROQUA        MOCLDY    19  12  74 SE5       30.00F WCI  12
BOSCOBEL       CLOUDY    21  13  71 CALM      30.06F
PRAIRIE DU CHI MOCLDY    19  12  76 CALM      30.05F
PLATTEVILLE    CLOUDY    19  13  79 N5        30.04R WCI  12
$$

WIZ056-057-062-063-064-067-068-260600-
SOUTH CENTRAL WISCONSIN

CITY           SKY/WX    TMP DP  RH WIND       PRES   REMARKS
REEDSBURG      MOCLDY    17  10  74 CALM      30.05R
BARABOO/DELLS  MOCLDY    16  10  76 CALM      30.05R
LONE ROCK      NOT AVBL
MINERAL POINT  NOT AVBL
MADISON        MOCLDY    16  10  77 N5        30.03F WCI   9
MIDDLETON      CLEAR     18  12  77 CALM      30.04S
WATERTOWN      MOCLDY    15  11  85 N5        30.01F WCI   7
MONROE         PTCLDY    18  12  79 N6        30.00F WCI   9
JANESVILLE     CLEAR     18  12  79 N5        30.01F WCI  11
$$

WIZ051-052-058>065-066-070>072-260600-
SOUTHEAST WISCONSIN

CITY           SKY/WX    TMP DP  RH WIND       PRES   REMARKS
MILWAUKEE      PTCLDY    23  12  62 NE8       30.01F WCI  14
WAUKESHA       PTCLDY    14  10  85 NW5       30.01F WCI   6
MILWAUKEE/TIMM PTCLDY    18  12  79 N7        30.02F WCI   8
RACINE         CLEAR     24  11  57 NE8       30.01F WCI  15
BURLINGTON     CLEAR     15  11  83 N6        30.00F WCI   7
KENOSHA        CLEAR     18  11  74 E8        29.99F WCI   8
FOND DU LAC    MOCLDY    15   7  70 N6        30.03F WCI   6
SHEBOYGAN      PTCLDY    16  10  77 N7        30.02F WCI   6
WEST BEND      CLOUDY    16  10  79 CALM      30.01F
JUNEAU         MOCLDY    14   9  80 N7        30.03F WCI   4
$$

LSZ147-162-260600-
LAKE SUPERIOR

STATION/POSITION TIME  TEMP    WIND        PRES    WAVE
                       AIR SEA DIR/SP/G            HT/PER
                 (UTC) (F)     (DEG/KT/KT) (MB)    (FT/S)
DEVILS ISLAND    0400   20     190/  5/  7 1016.5F
PORT WING        0400   17     170/  3/  4 1015.6
SAXON HARBOR     0400   11        CALM     1016.3F
$$

LMZ867-665-643>646-260600-
LAKE MICHIGAN

STATION/POSITION TIME  TEMP    WIND        PRES    WAVE
                       AIR SEA DIR/SP/G            HT/PER
                 (UTC) (F)     (DEG/KT/KT) (MB)    (FT/S)
NORTHPORT PIER   0412   18      30/  5/ 10 1017.6F
SISTER BAY       0413   13        CALM       N/A
KEWAUNEE LAKESHO 0400   18      10/  5/  7 1017.0F
SHEBOYGAN LAKESH 0400   24      60/ 16/ 20 1018.3F
PORT WASHINGTON  0440   18     330/  5/  8 1017.6F
MILWAUKEE LAKESH 0400   26      50/ 14/ 17   N/A
KENOSHA   LAKESH 0400   27      50/ 15/ 19 1015.9S
$$

TC  - TEMPERATURE IN CELSIUS
VSB - VISIBILITY IN STATUTE MILES
WCI - WIND CHILL INDEX
HX  - HEAT INDEX




USA.gov is the U.S. government's official web portal to all federal, state and local government web resources and services.